This demonstration page uses our WeatherBlox Daily Observations layout. Learn more.

38.88101, -77.10428

Hourly Observations for April 29, 2018

Temp ( °F °C ) Dew Point ( °F °C ) Humidity (%) Winds ( mph kmh ) Pressure ( in mb ) Visibility ( mi km ) Precip ( " mm )
12:52 am 00:52 Cloudy 54 12.2 37 2.8 53 53 NNW 22 35 29.97 1015 10 16.0934 0 0.0254
1:52 am 01:52 Cloudy 52 11.1 34 1.1 50 50 NNW 18 30 29.98 1015 10 16.0934 0 0
2:52 am 02:52 Mostly Cloudy 51 10.6 33 0.6 50 50 NW 15 24 29.98 1015 10 16.0934 0 0
3:52 am 03:52 Mostly Cloudy 49 9.4 30 -1.1 48 48 NNW 16 26 30 1016 10 16.0934 0 0
4:52 am 04:52 Mostly Clear 47 8.3 28 -2.2 48 48 NW 13 20 30.01 1016 10 16.0934 0 0
5:52 am 05:52 Mostly Clear 46 7.8 27 -2.8 47 47 NW 16 26 30.01 1016 10 16.0934 0 0
6:52 am 06:52 Mostly Sunny 46 7.8 28 -2.2 50 50 NW 14 22 30.04 1017 10 16.0934 0 0
7:52 am 07:52 Partly Cloudy 48 8.9 29 -1.7 48 48 WNW 14 22 30.06 1018 10 16.0934 0 0
8:52 am 08:52 Partly Cloudy 49 9.4 29 -1.7 46 46 NW 16 26 30.08 1019 10 16.0934 0 0
9:52 am 09:52 Mostly Cloudy 49 9.4 28 -2.2 44 44 NW 24 39 30.09 1019 10 16.0934 0 0
10:52 am 10:52 Mostly Cloudy 50 10 29 -1.7 44 44 NW 20 31 30.11 1020 10 16.0934 0 0
11:52 am 11:52 Mostly Cloudy 50 10 29 -1.7 44 44 NNW 22 35 30.11 1020 10 16.0934 0 0
12:52 pm 12:52 Mostly Cloudy 54 12.2 31 -0.6 42 42 NW 18 30 30.11 1020 10 16.0934 0 0
1:52 pm 13:52 Mostly Cloudy 54 12.2 30 -1.1 40 40 NW 18 30 30.11 1020 10 16.0934 0 0
2:52 pm 14:52 Mostly Cloudy 54 12.2 30 -1.1 40 40 NW 17 28 30.11 1020 10 16.0934 0 0
3:52 pm 15:52 Mostly Cloudy 54 12.2 29 -1.7 38 38 NW 17 28 30.1 1019 10 16.0934 0 0
4:52 pm 16:52 Mostly Cloudy 56 13.3 30 -1.1 37 37 WNW 18 30 30.11 1020 10 16.0934 0 0
5:52 pm 17:52 Partly Cloudy 55 12.8 30 -1.1 38 38 WNW 20 31 30.12 1020 10 16.0934 0 0
6:52 pm 18:52 Partly Cloudy 55 12.8 30 -1.1 38 38 NW 10 17 30.12 1020 10 16.0934 0 0
7:52 pm 19:52 Mostly Sunny 52 11.1 30 -1.1 43 43 NNW 14 22 30.14 1021 10 16.0934 0 0
8:52 pm 20:52 Mostly Clear 51 10.6 30 -1.1 44 44 NW 10 17 30.17 1022 10 16.0934 0 0
9:52 pm 21:52 Mostly Clear 49 9.4 31 -0.6 50 50 N 8 13 30.19 1022 10 16.0934 0 0
10:52 pm 22:52 Clear 47 8.3 31 -0.6 54 54 N 7 11 30.18 1022 10 16.0934 0 0
11:52 pm 23:52 Clear 47 8.3 31 -0.6 54 54 NW 5 7 30.18 1022 10 16.0934 0 0

Powered by AerisWeather